Wind_Speed
5 5 5 6 5 5 4 4 4 4 4 3 3 3 3 3 3 4 5 5 4 4 4 6 6 6 6 6 6 7 6 6 6 7 7 8 8 9 9 10 10 10 10
4 4 4 5 5 5 4 3 4 4 3 3 3 3 4 4 4 5 6 6 6 6 6 6 6 6 6 6 6 7 7 7 8 8 8 8 9 9 10 11 11 11 11
4 4 4 5 5 5 4 3 3 4 4 4 4 4 4 5 5 6 6 6 6 6 6 6 6 7 7 6 7 8 9 9 10 10 10 10 10 11 11 12 12 12 12
5 5 5 5 5 5 4 4 3 4 4 4 4 5 5 5 5 5 5 5 5 6 6 7 7 8 8 8 8 9 10 11 11 11 11 11 11 11 12 13 13 13 13
6 6 6 6 6 6 6 5 5 5 5 5 6 6 5 5 5 6 6 6 6 6 7 8 9 9 9 10 10 11 11 12 12 12 12 12 12 12 12 13 14 14 14
7 7 7 7 7 7 7 6 6 5 5 6 6 6 7 6 6 7 7 7 7 8 9 9 10 10 11 11 11 12 12 13 13 12 12 12 12 13 13 13 14 14 15
8 8 8 8 8 8 8 7 7 7 7 7 7 8 8 8 8 8 9 9 9 9 10 10 11 11 12 12 13 13 13 14 14 13 13 13 13 13 14 14 15 15 15
9 9 9 9 9 9 9 8 8 8 9 9 9 9 10 10 10 10 10 10 11 11 11 11 12 12 13 14 13 13 14 13 14 14 14 14 14 15 15 16 16 16 16
10 10 10 10 10 10 10 10 10 10 10 10 11 11 11 11 11 12 11 11 12 12 12 13 13 14 14 14 14 15 15 14 15 14 14 15 16 16 17 17 17 17 18
11 11 12 12 12 11 12 11 11 11 12 13 13 12 13 13 13 13 12 12 13 13 13 14 15 16 16 16 16 16 16 16 15 15 16 16 17 17 18 18 18 19 19
12 12 13 13 13 13 12 12 13 14 14 14 14 14 14 14 14 14 14 14 14 14 15 16 17 18 18 18 18 17 17 17 17 17 17 18 18 19 19 20 20 20 20
13 13 13 13 13 13 13 13 14 15 16 15 15 15 15 15 15 15 15 15 15 15 17 17 19 19 19 19 19 18 18 18 19 19 19 19 20 20 21 21 21 22 22
14 15 14 14 14 14 15 15 15 16 16 16 17 17 16 16 16 17 17 17 17 17 18 19 19 19 19 20 19 19 20 20 20 20 20 21 21 22 22 22 22 23 23
16 16 16 16 16 16 16 16 16 17 17 17 17 18 18 17 17 17 17 18 18 18 19 19 20 20 20 21 21 21 21 21 21 22 22 22 23 23 23 23 24 24 25
17 17 17 17 17 18 18 18 18 19 19 19 19 19 19 19 19 19 19 20 19 20 20 21 21 22 22 22 22 22 22 22 23 24 24 24 24 24 24 24 25 25 25
18 19 19 19 19 20 20 20 20 20 20 20 21 21 21 21 21 20 20 20 20 21 21 22 22 23 23 23 24 24 24 24 24 25 26 26 26 25 25 25 25 25 26
20 21 22 22 21 21 22 22 22 21 21 22 23 22 22 22 22 22 22 22 22 22 22 23 23 24 24 24 24 24 24 24 25 25 26 26 26 27 26 26 26 26 26
21 22 22 22 23 23 24 24 24 23 23 24 24 23 23 23 23 23 24 24 24 24 24 24 24 24 25 24 24 24 25 25 25 26 26 27 27 26 26 26 27 27 26
23 24 24 24 25 25 26 26 26 25 25 25 25 25 26 26 26 25 25 25 25 25 25 25 25 25 25 25 25 25 25 25 26 26 27 27 27 26 26 26 26 27 27
25 25 26 26 27 28 28 28 28 27 27 27 27 27 28 28 28 27 27 27 26 26 26 26 26 26 26 26 25 25 25 26 26 27 27 27 26 26 26 26 26 27 27
27 27 28 28 29 30 30 30 30 30 29 29 29 29 30 29 29 28 28 28 28 28 28 27 27 27 26 26 26 26 26 26 27 27 27 27 27 27 28 28 27 27 27
28 28 28 29 30 31 32 32 31 31 31 31 31 30 30 30 29 29 29 29 29 28 28 28 28 27 27 27 27 26 26 27 27 27 27 27 28 28 28 29 29 29 29
29 29 29 30 31 31 32 32 32 32 31 32 32 31 30 30 30 29 29 29 29 29 29 28 28 28 27 27 27 27 27 27 27 28 28 28 29 29 29 29 29 30 30
30 30 31 31 31 31 32 32 32 32 32 32 32 32 31 31 31 30 29 29 30 29 29 28 28 28 27 27 27 27 28 28 29 29 29 30 30 30 30 30 30 30 30
31 30 31 31 31 31 31 32 32 32 32 32 32 32 32 32 32 31 31 30 30 29 29 29 29 28 28 28 28 28 28 29 29 30 30 31 31 30 30 29 29 29 28
31 31 31 32 32 32 32 32 32 32 32 33 33 33 33 33 32 31 31 31 30 30 29 29 29 29 28 28 28 28 28 29 30 31 31 30 30 29 29 28 28 28 28
Wind_Direction
41 41 40 36 35 35 39 47 44 40 38 40 33 23 9 360 352 340 337 336 332 330 329 333 335 334 329 322 321 322 317 315 307 302 300 301 300 296 291 286 288 292 296
17 17 15 14 13 12 16 35 27 15 11 12 5 359 353 344 338 334 334 330 325 326 322 323 326 321 317 319 317 315 315 314 313 308 301 298 295 293 288 286 288 291 292
334 347 348 346 347 350 354 2 352 352 354 352 351 350 342 335 330 331 331 328 327 329 328 326 327 324 321 316 312 310 310 311 309 306 302 299 294 289 287 284 286 287 289
302 315 325 330 329 329 327 336 331 333 336 339 341 339 335 330 326 326 325 329 334 331 326 324 321 320 315 312 310 311 310 308 306 304 300 299 295 292 289 286 285 286 289
290 297 308 312 316 320 321 322 320 318 320 318 320 323 322 321 327 331 327 324 326 324 323 320 319 319 318 315 311 312 310 310 307 303 302 301 298 297 294 290 289 288 289
284 292 301 305 304 313 316 316 315 310 308 311 312 311 310 311 316 318 322 321 316 314 315 317 317 316 317 315 313 312 309 306 305 303 304 304 301 299 299 298 294 292 291
281 286 294 299 302 308 310 308 307 305 304 304 304 301 300 301 304 305 309 315 315 311 310 314 315 313 313 311 311 312 309 308 304 301 300 299 301 302 299 298 297 296 293
280 282 287 292 297 303 304 303 299 299 299 299 299 297 297 297 299 302 304 308 313 313 309 311 314 312 312 311 309 309 308 306 305 301 299 299 300 300 298 297 297 297 294
277 280 283 288 292 295 296 297 297 296 297 296 296 296 296 295 296 298 299 304 308 310 309 309 310 310 310 310 306 306 305 304 305 301 299 298 299 298 297 297 297 297 296
276 279 281 285 288 291 294 293 296 295 295 294 295 295 294 293 295 298 298 302 305 308 307 306 306 307 307 305 303 303 302 303 301 299 298 297 296 297 298 298 297 295 294
273 277 279 281 283 288 291 292 293 294 293 293 294 294 292 291 294 298 297 299 300 302 304 302 303 304 303 302 301 300 301 301 299 297 295 295 295 296 296 297 296 295 296
270 275 276 278 279 283 287 291 293 294 294 292 291 292 294 292 291 295 297 297 296 298 301 299 299 300 301 301 299 299 297 298 297 295 293 293 294 295 295 295 294 293 293
272 274 273 273 275 278 282 286 289 292 293 292 290 291 292 294 292 293 294 294 293 296 299 299 299 301 303 303 300 298 297 296 294 292 292 292 293 295 295 293 293 293 292
270 272 270 271 274 277 280 283 286 287 289 288 289 292 294 297 297 295 294 295 296 297 299 301 301 301 301 300 298 297 296 295 294 292 292 292 292 293 294 293 293 292 291
267 268 268 270 272 276 279 282 282 285 286 285 285 288 290 294 295 295 295 297 298 297 297 298 300 299 299 298 297 296 295 294 293 293 291 292 292 292 293 293 292 291 289
265 264 266 268 272 274 277 280 281 283 283 284 285 285 287 290 291 292 295 296 296 297 297 299 300 300 299 298 297 296 295 293 293 293 293 292 292 292 291 291 290 290 289
264 263 263 267 270 274 278 279 281 283 283 284 285 285 286 287 289 291 294 294 294 295 296 298 299 300 301 300 299 298 297 296 295 296 297 296 293 291 290 290 289 289 288
266 265 266 269 271 274 275 278 280 282 284 284 285 285 284 286 288 289 291 292 293 294 295 297 299 301 302 302 301 300 299 298 298 298 299 297 296 291 289 289 288 288 287
266 266 266 269 270 271 274 278 280 282 283 282 283 284 285 285 286 287 287 288 290 293 294 295 297 299 300 300 300 301 300 299 300 300 299 299 297 292 291 290 289 289 287
266 267 267 268 270 271 273 276 278 280 282 281 282 283 284 284 286 286 286 287 288 290 293 294 295 296 298 299 299 301 301 300 301 301 300 300 298 295 293 293 291 290 288
267 268 269 270 271 272 273 275 277 279 281 282 282 282 283 283 284 284 285 285 286 288 289 291 293 294 296 298 299 299 299 300 300 301 301 301 300 297 295 294 294 292 292
269 269 270 272 273 274 275 275 276 278 280 281 282 282 282 282 282 282 284 284 285 287 288 288 289 291 293 296 297 298 298 299 300 300 301 301 301 299 297 295 294 292 291
269 271 273 274 275 275 276 276 277 278 279 280 281 281 281 282 282 283 284 285 287 286 286 287 287 289 291 293 296 296 297 297 299 300 301 301 301 299 297 295 293 292 291
269 270 273 274 275 277 277 277 277 277 277 277 278 280 281 282 283 283 283 284 286 285 284 286 287 288 289 290 292 293 295 297 299 300 301 301 300 299 297 295 294 293 292
268 269 271 273 275 277 278 277 276 276 276 278 279 280 280 280 282 282 282 283 285 284 284 284 286 287 287 288 290 291 293 295 297 300 301 302 301 300 297 296 295 295 294
269 270 270 272 275 277 277 277 276 276 277 278 279 279 278 279 280 279 280 282 284 285 284 285 285 285 285 286 289 291 293 294 297 300 300 300 301 302 299 297 297 296 296
Height
5913 5912 5911 5910 5909 5907 5906 5905 5904 5903 5902 5901 5900 5900 5899 5899 5898 5897 5896 5895 5894 5893 5892 5891 5890 5890 5889 5887 5886 5885 5884 5883 5882 5882 5881 5880 5879 5878 5877 5876 5876 5875 5873
5914 5913 5912 5910 5909 5908 5907 5906 5905 5904 5903 5902 5901 5900 5899 5898 5897 5897 5896 5894 5893 5893 5892 5891 5890 5888 5887 5887 5886 5884 5883 5882 5881 5880 5879 5878 5878 5876 5875 5874 5873 5872 5871
5914 5913 5912 5911 5909 5908 5907 5906 5905 5904 5903 5902 5901 5900 5899 5898 5897 5896 5895 5893 5892 5892 5891 5890 5889 5887 5886 5886 5884 5883 5882 5881 5879 5878 5877 5876 5876 5874 5873 5872 5870 5870 5869
5914 5913 5912 5911 5909 5908 5907 5905 5904 5904 5903 5902 5901 5900 5898 5897 5896 5895 5894 5893 5892 5891 5890 5889 5888 5887 5885 5884 5883 5881 5880 5879 5877 5876 5874 5874 5872 5871 5870 5869 5867 5866 5866
5913 5912 5911 5910 5909 5907 5906 5905 5904 5903 5902 5901 5900 5899 5898 5897 5896 5895 5893 5892 5891 5890 5889 5888 5886 5885 5884 5882 5881 5879 5878 5876 5875 5873 5872 5871 5869 5868 5867 5865 5864 5863 5863
5912 5911 5910 5909 5908 5907 5906 5904 5903 5902 5901 5900 5899 5898 5897 5896 5895 5894 5893 5891 5890 5888 5887 5886 5885 5883 5882 5880 5879 5877 5875 5874 5872 5871 5870 5868 5867 5865 5864 5863 5861 5860 5859
5910 5909 5908 5908 5907 5905 5904 5903 5902 5901 5900 5899 5898 5897 5896 5894 5893 5892 5891 5889 5888 5887 5885 5884 5883 5881 5880 5878 5876 5874 5873 5871 5869 5868 5866 5865 5864 5863 5861 5860 5858 5857 5855
5908 5907 5907 5906 5905 5904 5903 5902 5901 5900 5898 5897 5896 5895 5894 5892 5891 5890 5889 5887 5886 5884 5883 5882 5880 5879 5877 5875 5873 5872 5870 5868 5866 5865 5863 5862 5861 5859 5858 5857 5855 5853 5852
5905 5905 5904 5904 5903 5902 5901 5900 5899 5898 5896 5895 5894 5892 5891 5890 5888 5887 5886 5885 5883 5882 5880 5879 5878 5876 5874 5872 5870 5868 5867 5865 5863 5861 5860 5859 5857 5856 5854 5852 5851 5850 5848
5903 5902 5902 5901 5900 5899 5898 5897 5896 5895 5894 5892 5891 5890 5888 5887 5886 5885 5883 5882 5880 5879 5878 5876 5875 5873 5871 5869 5867 5865 5863 5861 5860 5858 5856 5855 5853 5852 5850 5848 5846 5845 5843
5899 5899 5898 5898 5897 5896 5895 5894 5893 5892 5891 5889 5888 5886 5884 5883 5882 5882 5880 5879 5877 5876 5874 5873 5871 5869 5867 5865 5863 5861 5859 5857 5856 5854 5852 5851 5849 5847 5845 5843 5841 5839 5838
5896 5895 5895 5894 5894 5893 5892 5891 5890 5889 5887 5886 5884 5883 5881 5880 5879 5878 5876 5875 5873 5872 5870 5868 5867 5865 5862 5860 5858 5856 5854 5853 5851 5849 5847 5846 5844 5842 5840 5838 5836 5834 5832
5892 5891 5891 5890 5890 5889 5888 5887 5886 5885 5883 5882 5880 5879 5877 5876 5875 5874 5872 5871 5869 5868 5866 5864 5862 5860 5858 5856 5854 5852 5850 5848 5846 5844 5842 5840 5838 5836 5834 5832 5830 5828 5826
5887 5887 5887 5886 5886 5885 5884 5883 5882 5881 5880 5878 5877 5875 5874 5872 5871 5869 5868 5866 5864 5863 5861 5859 5857 5855 5853 5851 5849 5847 5844 5842 5840 5838 5836 5834 5832 5830 5828 5825 5823 5821 5819
5882 5882 5882 5882 5881 5880 5880 5879 5877 5876 5875 5874 5873 5871 5870 5868 5866 5865 5863 5861 5860 5858 5856 5854 5852 5849 5847 5845 5843 5841 5839 5836 5834 5832 5830 5828 5825 5823 5821 5819 5816 5814 5812
5877 5877 5877 5876 5876 5875 5874 5874 5872 5871 5870 5869 5867 5866 5865 5863 5861 5860 5858 5856 5854 5852 5850 5848 5846 5844 5841 5839 5836 5834 5832 5830 5827 5825 5823 5820 5818 5816 5814 5812 5809 5807 5804
5872 5871 5871 5870 5870 5870 5869 5868 5867 5866 5864 5863 5862 5861 5859 5858 5856 5854 5853 5851 5849 5847 5845 5842 5840 5837 5835 5832 5830 5827 5825 5823 5820 5818 5815 5813 5811 5809 5806 5804 5802 5799 5797
5865 5865 5865 5865 5864 5863 5863 5862 5861 5860 5859 5857 5856 5855 5853 5852 5850 5848 5847 5845 5843 5841 5839 5837 5834 5831 5829 5826 5823 5821 5818 5816 5813 5810 5808 5805 5802 5800 5798 5795 5793 5791 5789
5859 5858 5858 5858 5857 5857 5856 5855 5854 5853 5852 5851 5850 5848 5847 5845 5844 5842 5840 5838 5836 5834 5832 5830 5827 5825 5822 5819 5817 5814 5812 5809 5806 5803 5800 5797 5795 5792 5790 5787 5785 5783 5780
5852 5851 5851 5851 5851 5850 5849 5848 5847 5846 5845 5844 5842 5841 5840 5838 5837 5835 5833 5831 5829 5827 5825 5823 5820 5818 5815 5813 5810 5807 5805 5802 5799 5796 5793 5790 5787 5784 5782 5779 5777 5775 5773
5844 5844 5843 5843 5843 5842 5841 5840 5839 5838 5837 5836 5834 5833 5832 5830 5828 5827 5825 5823 5821 5820 5818 5815 5813 5811 5808 5806 5803 5800 5798 5795 5792 5789 5786 5783 5780 5777 5775 5772 5770 5767 5765
5835 5835 5835 5834 5834 5833 5832 5831 5830 5829 5828 5827 5826 5825 5823 5822 5820 5818 5817 5815 5813 5811 5809 5808 5806 5803 5801 5799 5796 5793 5791 5788 5784 5781 5779 5776 5773 5770 5767 5765 5762 5760 5757
5826 5826 5826 5825 5825 5824 5823 5821 5820 5820 5819 5818 5817 5815 5814 5813 5811 5810 5808 5806 5804 5803 5801 5799 5798 5795 5793 5791 5788 5786 5783 5780 5777 5774 5771 5768 5765 5762 5759 5756 5754 5751 5749
5817 5817 5817 5816 5815 5814 5813 5812 5811 5810 5810 5809 5807 5806 5805 5804 5802 5801 5799 5798 5796 5794 5792 5791 5789 5787 5785 5783 5781 5778 5775 5773 5770 5767 5763 5760 5757 5753 5750 5748 5745 5743 5741
5808 5807 5807 5806 5806 5805 5803 5802 5802 5801 5800 5799 5798 5797 5795 5794 5793 5791 5790 5789 5787 5786 5784 5782 5781 5779 5777 5775 5772 5770 5768 5765 5762 5759 5755 5752 5749 5745 5742 5739 5737 5734 5732
5798 5798 5797 5797 5796 5795 5794 5793 5792 5791 5790 5789 5788 5787 5786 5784 5783 5782 5781 5779 5778 5777 5775 5774 5772 5770 5769 5766 5764 5762 5760 5757 5754 5751 5747 5744 5740 5737 5734 5731 5729 5726 5724